TimeEST,TemperatureF,Dew PointF,Humidity,Sea Level PressureIn,VisibilityMPH,Wind Direction,Wind SpeedMPH,Gust SpeedMPH,PrecipitationIn,Events,Conditions,WindDirDegrees,DateUTC
1:54 AM,30.9,21.9,69,29.97,10.0,NNE,9.2,-,N/A,,Clear,20,2013-03-03 06:54:00
2:54 AM,30.9,19.9,64,29.95,10.0,NNE,6.9,-,N/A,,Clear,30,2013-03-03 07:54:00
3:54 AM,30.0,19.9,66,29.95,10.0,North,8.1,-,N/A,,Clear,10,2013-03-03 08:54:00
4:54 AM,28.9,19.0,67,29.96,10.0,North,8.1,-,N/A,,Clear,360,2013-03-03 09:54:00
5:54 AM,28.0,19.9,72,29.97,10.0,Calm,Calm,-,N/A,,Overcast,0,2013-03-03 10:54:00
6:54 AM,25.0,19.9,81,29.99,10.0,Calm,Calm,-,N/A,,Clear,0,2013-03-03 11:54:00
7:54 AM,30.0,23.0,75,30.00,10.0,Calm,Calm,-,N/A,,Clear,0,2013-03-03 12:54:00
8:54 AM,34.0,19.0,54,30.00,10.0,NE,5.8,-,N/A,,Clear,40,2013-03-03 13:54:00
9:54 AM,37.0,18.0,46,30.00,10.0,North,10.4,-,N/A,,Clear,350,2013-03-03 14:54:00
10:54 AM,37.9,17.1,43,29.99,10.0,Variable,4.6,-,N/A,,Clear,0,2013-03-03 15:54:00
11:54 AM,39.9,19.9,45,29.98,10.0,North,-9999.0,-,N/A,,Partly Cloudy,0,2013-03-03 16:54:00
12:54 PM,42.1,19.0,40,29.95,10.0,West,10.4,-,0.00,,Partly Cloudy,260,2013-03-03 17:54:00
1:54 PM,45.0,19.0,36,29.92,10.0,NW,9.2,-,0.00,,Clear,310,2013-03-03 18:54:00
2:54 PM,45.0,19.0,36,29.92,10.0,Variable,6.9,-,N/A,,Partly Cloudy,0,2013-03-03 19:54:00
3:54 PM,46.0,19.0,34,29.91,10.0,NW,9.2,-,N/A,,Clear,310,2013-03-03 20:54:00
4:54 PM,45.0,18.0,34,29.92,10.0,West,12.7,-,N/A,,Clear,280,2013-03-03 21:54:00
5:54 PM,44.1,18.0,35,29.93,10.0,West,6.9,-,N/A,,Clear,280,2013-03-03 22:54:00
6:54 PM,41.0,18.0,40,29.96,10.0,NW,10.4,-,N/A,,Clear,320,2013-03-03 23:54:00
7:54 PM,36.0,18.0,48,29.99,10.0,North,13.8,18.4,N/A,,Clear,360,2013-03-04 00:54:00
8:54 PM,35.1,17.1,48,30.01,10.0,North,9.2,-,N/A,,Clear,350,2013-03-04 01:54:00
9:54 PM,33.1,17.1,52,30.03,10.0,North,8.1,-,N/A,,Clear,360,2013-03-04 02:54:00
10:54 PM,30.0,17.1,59,30.04,10.0,North,5.8,-,N/A,,Clear,10,2013-03-04 03:54:00
11:54 PM,30.0,16.0,56,30.04,10.0,NNW,8.1,-,N/A,,Clear,340,2013-03-04 04:54:00